Terminal Aerodrome Forecast
Issued by NWS Jacksonville, FL

Home | Current Version | Previous Version | Text Only | Print | Product List | Glossary On
Versions: 1 2 3 4 5 6 7 8 9 10 11 12 13 14 15 16 17 18 19 20
000
FTUS42 KJAX 302300
TAFJAX
TAF
KJAX 302320Z 3100/3124 06006KT P6SM VCSH FEW060 BKN250
     FM310200 VRB03KT P6SM FEW020 SCT060
     FM311400 15006KT P6SM SCT060 SCT250=

USA.gov is the U.S. government's official web portal to all federal, state and local government web resources and services.